Location: ???????
(54.6339°N, 39.4245°E)
Time: 02:29:52
(UTC+00:00)

SPOT 3 Rocket - Pass Details

Date: 19 May 2025
Orbit: 775 x 790 km, 98.5° (Epoch: 14 June)

Event Time Altitude Azimuth Distance (km) Brightness Sun altitude
Exits shadow 18:22:26 - 156° (SSE) 2,628 5.7 -6.5°
Reaches altitude 10° 18:23:11 10° 156° (SSE) 2,326 5.4 -6.5°
Maximum altitude 18:28:18 77° 71° (ENE) 802 3.6 -7.0°
Drops below altitude 10° 18:33:28 10° 346° (NNW) 2,338 7.2 -7.5°
Sets 18:35:47 0° 345° (NNW) 3,270 8.2 -7.7°
